Starlink 2448

operational
NORAD ID: 48111 Int'l Des: 2021-027 Owner: SPXS Country: US Constellation: starlink
LEOCIRCULARSTARLINK_TYPE

Über Starlink 2448

Beschreibung wird geladen...

Live-Position

3D-Globus wird geladen...

Nächste Überflüge

Höhenverlauf

Altitude vs Time

uPlot chart will show altitude changes over time

Zweizeiliger Elementsatz

1 48111U 21027V 25350.22994381 .00000800 00000-0 72614-4 0 9992
2 48111 53.0537 176.2535 0001482 85.2623 274.8536 15.06398416259981
Epoch: 16. Dez. 2025 • Age: 19 hours

Aktueller Status

Höhe 548.1 km
Geschwindigkeit 7.59 km/s
Subsatellitenpunkt 29.16°N, 99.53°E
Startdatum 7. Apr. 2021
Alter 4.6 years
Typ internet

Technische Details

Klassifizierung Payload
Masse 260.00 kg
Trockenmasse 248.00 kg
Gesamtmasse 260.00 kg
Länge 0.20 m
Durchmesser 2.80 m
Spannweite 9.00 m
Form Box + pan
Hersteller SPXS
Bus-Typ Starlink
Phasenstatus In Orbit
Besitzer/Staat SPXS/US

Große Konstellationen

Loading constellations...